DW5678 Kavala GR current weather conditions

sailwx.info

Wind from 252

Air temperature 23.3° C
Dewpoint 15.1° C

Last reported at 2015-Jul-03 20:45 UTC.
Time now 2015-Jul-03 22:04 UTC

Location: N 40°56' E 024°24'.
View on Google Maps.

See reports from other nearby stations

  
Tides and Currents Weather Stations Pressure Air Temp Water Temp Dewpoint Dewpoint Depression Visibility Wind Speed Wind Dir Waves Ship Positions
date/time (UTC)wind fromknots sea level pressurealtimeterstation pressurevisibilityair tempwater tempwave heightnotes
2015-Jul-03 21:45 287 23.9
2015-Jul-03 21:30 340 0 gusting 2 23.9
2015-Jul-03 21:15 310 23.9
2015-Jul-03 21:00 283 23.3
2015-Jul-03 20:45 252 23.3
2015-Jul-03 20:30 203 23.9
2015-Jul-03 20:15 290 23.9
2015-Jul-03 20:00 290 23.9
2015-Jul-03 19:45 290 0 gusting 2 23.9
2015-Jul-03 19:30 221 24.4
2015-Jul-03 19:15 221 24.4
2015-Jul-03 19:00 217 24.4
2015-Jul-03 18:45 217 24.4
2015-Jul-03 18:30 217 24.4
2015-Jul-03 18:15 217 25.0
2015-Jul-03 18:00 217 25.0
2015-Jul-03 17:45 217 25.6
2015-Jul-03 17:30 216 26.1
2015-Jul-03 17:15 216 26.1
2015-Jul-03 17:00 216 26.1
2015-Jul-03 16:45 216 26.7
2015-Jul-03 16:30 216 26.7
2015-Jul-03 16:15 221 26.7
2015-Jul-03 16:00 220 26.1
2015-Jul-03 15:45 194 26.1
2015-Jul-03 15:30 194 25.6
2015-Jul-03 15:15 222 25.6
2015-Jul-03 15:00 211 0 gusting 2 25.6
2015-Jul-03 14:45 180 0 gusting 2 26.1
2015-Jul-03 14:30 218 0 gusting 2 26.1
2015-Jul-03 14:15 204 0 gusting 2 25.6
2015-Jul-03 14:00 222 0 gusting 5 25.0
2015-Jul-03 13:45 218 0 gusting 6 26.1
2015-Jul-03 13:30 224 2 gusting 5 26.1
2015-Jul-03 13:15 211 1 gusting 4 26.7
2015-Jul-03 13:00 198 27.2
2015-Jul-03 12:45 225 26.1
2015-Jul-03 12:30 236 25.6
2015-Jul-03 12:15 229 26.1
2015-Jul-03 12:00 223 26.7
2015-Jul-03 11:45 122 0 gusting 2 26.1
2015-Jul-03 11:30 227 0 gusting 5 25.6
2015-Jul-03 11:15 265 0 gusting 6 25.6
2015-Jul-03 11:00 189 0 gusting 5 25.0
2015-Jul-03 10:45 222 0 gusting 5 25.0
2015-Jul-03 10:30 204 0 gusting 4 25.6
2015-Jul-03 10:15 224 1 gusting 4 26.1
2015-Jul-03 10:00 143 0 gusting 2 26.1
2015-Jul-03 09:45 216 0 gusting 4 25.6
2015-Jul-03 09:30 192 0 gusting 4 25.6
2015-Jul-03 09:15 138 1 gusting 4 24.4
2015-Jul-03 09:00 206 0 gusting 2 24.4
2015-Jul-03 08:45 123 0 gusting 2 23.9
2015-Jul-03 08:30 122 23.3
2015-Jul-03 08:15 122 0 gusting 4 23.3
2015-Jul-03 08:00 165 23.9
2015-Jul-03 07:45 179 23.3
2015-Jul-03 07:30 200 0 gusting 1 23.3
2015-Jul-03 07:15 198 23.3
2015-Jul-03 07:00 198 23.3
2015-Jul-03 06:45 198 23.3
2015-Jul-03 06:30 211 23.9
2015-Jul-03 06:15 241 23.9
2015-Jul-03 06:00 220 0 gusting 2 23.3
2015-Jul-03 05:45 228 24.4
2015-Jul-03 05:30 249 23.9
2015-Jul-03 05:15 300 23.9
2015-Jul-03 05:00 010 22.8
2015-Jul-03 04:45 304 22.8
2015-Jul-03 04:30 104 22.2
2015-Jul-03 04:15 126 22.2
2015-Jul-03 04:00 206 0 gusting 1 21.7
2015-Jul-03 03:45 252 21.7
2015-Jul-03 03:30 252 21.1
2015-Jul-03 03:15 263 0 gusting 1 21.7
2015-Jul-03 03:00 290 0 gusting 2 21.7
2015-Jul-03 02:45 284 21.7
2015-Jul-03 02:30 284 21.7
2015-Jul-03 02:15 284 21.7
2015-Jul-03 02:00 252 22.2
2015-Jul-03 01:45 253 22.2
2015-Jul-03 01:30 253 22.8
2015-Jul-03 01:15 253 22.8
2015-Jul-03 01:01 261 23.3
2015-Jul-03 00:45 261 0 gusting 2 23.3
2015-Jul-03 00:30 059 23.3
2015-Jul-03 00:15 082 23.9
2015-Jul-03 00:00 082 23.9
2015-Jul-02 23:45 082 23.9
2015-Jul-02 23:30 050 24.4
2015-Jul-02 23:15 031 1 gusting 6 24.4
2015-Jul-02 23:00 031 1 gusting 2 23.9
2015-Jul-02 22:45 036 1 gusting 2 24.4
2015-Jul-02 22:30 038 0 gusting 2 24.4
2015-Jul-02 22:15 055 0 gusting 4 24.4
2015-Jul-02 22:00 068 1 gusting 4 25.0
2015-Jul-02 21:45 059 0 gusting 5 25.0
2015-Jul-02 21:30 063 2 gusting 6 25.0
2015-Jul-02 21:15 082 24.4
2015-Jul-02 21:00 038 24.4
2015-Jul-02 20:45 218 25.0
2015-Jul-02 20:30 218 24.4
2015-Jul-02 20:15 218 24.4
2015-Jul-02 20:00 218 25.0
2015-Jul-02 19:45 218 25.0
2015-Jul-02 19:30 218 25.6
2015-Jul-02 19:15 218 25.6
2015-Jul-02 19:00 218 26.1
2015-Jul-02 18:45 218 25.6
2015-Jul-02 18:30 216 25.6
2015-Jul-02 18:15 216 25.6
2015-Jul-02 18:00 216 25.6
2015-Jul-02 17:45 216 25.6
2015-Jul-02 17:30 216 26.1
2015-Jul-02 17:15 216 26.1
2015-Jul-02 17:00 216 26.7
2015-Jul-02 16:45 216 26.7
2015-Jul-02 16:30 219 26.7
2015-Jul-02 16:15 219 27.2
2015-Jul-02 16:00 213 0 gusting 1 27.2
2015-Jul-02 15:45 205 27.8
2015-Jul-02 15:30 141 0 gusting 2 27.8
2015-Jul-02 15:15 224 0 gusting 2 27.8
2015-Jul-02 15:00 217 27.8
2015-Jul-02 14:45 238 0 gusting 5 27.2
2015-Jul-02 14:30 202 0 gusting 2 27.2
2015-Jul-02 14:15 217 27.2
2015-Jul-02 14:00 212 0 gusting 5 27.2
2015-Jul-02 13:45 228 1 gusting 5 27.2
2015-Jul-02 13:30 234 1 gusting 5 27.2
2015-Jul-02 13:15 204 2 gusting 4 27.2
2015-Jul-02 13:00 209 1 gusting 6 27.2
2015-Jul-02 12:45 219 0 gusting 4 27.2
2015-Jul-02 12:30 211 2 gusting 5 27.2
2015-Jul-02 12:15 205 0 gusting 1 27.2
2015-Jul-02 12:00 211 26.7
2015-Jul-02 11:45 229 26.7
2015-Jul-02 11:30 229 0 gusting 2 26.1
2015-Jul-02 11:15 238 0 gusting 2 25.6
2015-Jul-02 11:00 227 1 gusting 4 26.7
2015-Jul-02 10:45 239 1 gusting 4 26.1
2015-Jul-02 10:30 233 1 gusting 4 25.6
2015-Jul-02 10:15 235 0 gusting 5 24.4
2015-Jul-02 10:00 216 2 gusting 6 26.1
2015-Jul-02 09:45 226 1 gusting 6 27.8
2015-Jul-02 09:30 212 1 gusting 6 27.8
2015-Jul-02 09:15 187 1 gusting 2 27.8
2015-Jul-02 09:00 248 0 gusting 4 26.1
2015-Jul-02 08:45 148 0 gusting 8 27.2
2015-Jul-02 08:30 320 1 gusting 6 26.1
2015-Jul-02 08:15 296 1 gusting 6 25.6
2015-Jul-02 08:00 261 1 gusting 6 25.6
2015-Jul-02 07:45 105 2 gusting 6 25.6
2015-Jul-02 07:30 336 2 gusting 6 25.0
2015-Jul-02 07:15 227 1 gusting 11 23.9
2015-Jul-02 07:00 269 3 gusting 11 23.3
2015-Jul-02 06:45 100 3 gusting 6 23.3
2015-Jul-02 06:30 195 1 gusting 5 23.9
2015-Jul-02 06:15 222 1 gusting 10 22.8
2015-Jul-02 06:00 219 2 gusting 6 22.8
2015-Jul-02 05:45 151 1 gusting 6 22.8
2015-Jul-02 05:30 114 1 gusting 6 22.2
2015-Jul-02 05:15 299 2 gusting 10 21.1
2015-Jul-02 05:00 027 2 gusting 6 21.7
2015-Jul-02 04:45 238 1 gusting 7 21.1
2015-Jul-02 04:30 276 2 gusting 11 21.1
2015-Jul-02 04:15 243 1 gusting 7 21.1
2015-Jul-02 04:00 332 1 gusting 7 21.1
2015-Jul-02 03:45 156 2 gusting 7 21.1
2015-Jul-02 03:30 168 1 gusting 7 21.1
2015-Jul-02 03:15 224 1 gusting 10 20.6
2015-Jul-02 03:00 008 2 gusting 10 20.6
2015-Jul-02 02:45 016 3 gusting 10 20.0
2015-Jul-02 02:30 330 3 gusting 10 20.6
2015-Jul-02 02:15 267 2 gusting 10 20.6
2015-Jul-02 02:00 007 2 gusting 8 21.1
2015-Jul-02 01:45 110 3 gusting 8 21.1
2015-Jul-02 01:30 275 1 gusting 10 21.1
2015-Jul-02 01:15 025 0 gusting 6 21.1
2015-Jul-02 01:00 278 0 gusting 5 21.7
2015-Jul-02 00:45 007 2 gusting 10 21.1
2015-Jul-02 00:30 287 0 gusting 6 22.2
2015-Jul-02 00:15 327 0 gusting 5 22.8
2015-Jul-02 00:00 315 2 gusting 7 22.2
2015-Jul-01 23:45 026 3 gusting 6 22.2
2015-Jul-01 23:30 346 2 gusting 8 22.2
2015-Jul-01 23:15 291 0 gusting 6 22.8
2015-Jul-01 23:00 031 1 gusting 7 22.2
2015-Jul-01 22:45 302 1 gusting 6 22.2
2015-Jul-01 22:30 026 1 gusting 6 22.2
2015-Jul-01 22:15 129 1 gusting 6 22.2
2015-Jul-01 22:00 22.2